sat.trackr.live / text

‹ back to catalog

KITA-36

NORAD 69909 · 2026-156AS

PAYLOAD ACTIVE UNKNOWN

§ Identity

Operator
Country
JPN
Launch date
2026-07-07
Launch site
AFWTR
Launch vehicle
Mass (kg)
RCS (m²)

External: N2YO · Heavens-Above · Gunter

§ Orbital elements

Epoch: 2026-09-19T22:43:00.052896Z

Period
96.55 min
Inclination
97.7452°
Eccentricity
0.0003968
Mean motion
14.91509884 rev/d
Perigee alt
590.5 km
Apogee alt
596.0 km
Semi-major
6,971.4 km
B*
8.6709e-5
RAAN
162.1144°
Arg perigee
251.0238°
Mean anomaly
109.0550°
Rev number
1,112

§ Raw data

KITA-361 69909U 26156AS  26262.94652839  .00000813  00000+0  86709-4 0  99922 69909  97.7452 162.1144 0003968 251.0238 109.0550 14.91509884 11129

JSON: /api/v1/satellites/69909 · /tle

For live sub-satellite position, see the globe view (requires WebGL).

§ Visibility from observer

Set your observer location to see the next 7 days of passes ≥ 10°. The values pass through the URL so the page stays shareable.

No JS? Fill the form by hand. The geolocation button needs JavaScript.